Hourly Data Report for May 25, 2022

CARBERRY CS
MANITOBA
Current Station Operator: ECCC - MSC

49°54'20.900" N
99°21'26.800" W
383.50 m
5010547
71170
WZE

Download Data

Hourly Data (May 2022)
Hourly Data Report for May 25, 2022
TIME
LST
Temp Definition
°C
Dew Point Definition
°C
Rel Hum Definition
%
Precip. Amount Definition
mm

Wind Dir Definition
10's deg

Wind Spd Definition
km/h
Visibility Definition
km
Stn Press Definition
kPa
Hmdx Definition


Wind Chill Definition


Weather Definition


00:00 11.4 6.7 73 0.0 16 10   97.24     LegendNANA
01:00 10.4 6.5 77 0.0 16 10   97.23     LegendNANA
02:00 10.0 7.0 81 0.0 16 10   97.24     LegendNANA
03:00 9.4 6.2 81 0.0 17 11   97.23     LegendNANA
04:00 8.7 6.2 85 0.0 15 8   97.22     LegendNANA
05:00 7.7 5.7 87 0.0 14 10   97.18     LegendNANA
06:00 9.8 7.0 83 0.0 15 10   97.18     LegendNANA
07:00 12.0 8.0 76 0.0 16 9   97.18     LegendNANA
08:00 13.0 7.8 71 0.0 16 13   97.18     LegendNANA
09:00 16.2 6.9 54 0.0 17 21   97.14     LegendNANA
10:00 18.8 6.2 44 0.0 18 24   97.10     LegendNANA
11:00 18.7 5.7 43 0.0 19 22   97.03     LegendNANA
12:00 19.9 3.3 33 0.0 16 32   96.97     LegendNANA
13:00 20.9 4.2 33 0.0 18 30   96.87     LegendNANA
14:00 21.5 3.8 31 0.0 18 28   96.81     LegendNANA
15:00 21.8 1.2 25 0.0 18 29   96.75     LegendNANA
16:00 20.6 2.5 30 0.0 16 30   96.71     LegendNANA
17:00 21.2 3.9 32 0.0 17 26   96.66     LegendNANA
18:00 20.8 3.3 32 0.0 16 25   96.62     LegendNANA
19:00 20.0 3.6 34 0.0 17 20   96.57     LegendNANA
20:00 17.7 4.4 41 0.0 15 15   96.57     LegendNANA
21:00 15.5 4.7 48 0.0 14 13   96.56     LegendNANA
22:00 15.1 5.2 52 0.0 15 17   96.52     LegendNANA
23:00 14.9 5.6 54 0.0 16 20   96.51     LegendNANA

Notes on Data Quality.

Legend

  • E = Estimated
  • M = Missing
  • NA = Not Available*
  • [empty] = Indicates an unobserved value
Date modified: